(338871) = 2004 BQ9

Discovered at Palomar on 2004-01-16 by NEAT.

Orbit

Orbit type: Main Belt

Note: WebGL enabled browser required.

epoch2023-02-25.0
epoch JD2460000.5
perihelion date2022-06-06.40002
perihelion JD2459736.90002
argument of perihelion (°)57.47846
ascending node (°)339.44142
inclination (°)3.30665
eccentricity0.0875830
perihelion distance (AU)1.9751363
Tisserand w.r.t. Jupiter3.7
ΔV w.r.t. Earth (km/sec)8.7
semimajor axis (AU)2.1647298
mean anomaly (°)81.57248
mean daily motion (°/day)0.30945560
aphelion distance (AU)2.354
period (years)3.18
P-vector [x]0.79898332
P-vector [y]0.53057744
P-vector [z]0.28304279
Q-vector [x]-0.60101196
Q-vector [y]0.72040130
Q-vector [z]0.34613088
absolute magnitude17.51
phase slope0.15
uncertainty0
referenceMPO 745323
observations used386
oppositions12
arc length (days)8091
first opposition used2001
last opposition used2023
residual rms (arc-secs)0.77
perturbers coarse indicatorM-v
perturbers precise indicator003Ek
first observation date used2001-02-20.0
last observation date used2023-04-17.0
computer nameMPCLINUX
JD of orbit computation2456789.307216
perihelion JD uncertainty (days)8.3296E-05
argument of perihelion uncertainty (°)8.4652E-05
ascending node uncertainty (°)7.9111E-05
inclination uncertainty (°)4.2410E-06
eccentricity uncertainty 1.1789E-07
perihelion distance uncertainty (AU)2.6855E-07
Minimum Orbit Intersection Distances (in AU)
for orbit epoch: 2460000.5, reference: E2023-HA3
Mercury1.64633
Venus1.25569
Earth0.9823
Mars0.47273
Jupiter2.93515
Saturn6.99506
Uranus16.1503
Neptune27.8746

Observations

403 total observations over interval: 2001 02 20.417290 – 2023 04 17.238022
These data are available for download (format description).

Date (UT) J2000 RA J2000 Dec Magn Location Ref
2001 02 20.417290 11 07 50.347 +05 34 32.66 20.88 V 645 – Apache Point-Sloan Digital Sky Survey MPS 304846
2001 02 20.420762 11 07 50.128 +05 34 33.55 21.76   645 – Apache Point-Sloan Digital Sky Survey MPS 304846
2004 01 16.37380 09 33 14.47 +17 39 51.2 19.7   644 – Palomar Mountain/NEAT MPS 97099
2004 01 16.39478 09 33 13.30 +17 39 55.1 19.9   644 – Palomar Mountain/NEAT MPS 97099
2004 01 16.41664 09 33 12.09 +17 39 59.4 19.6   644 – Palomar Mountain/NEAT MPS 97099
2004 01 18.27638 09 31 30.79 +17 46 08.8 19.6   644 – Palomar Mountain/NEAT MPS 97099
2004 01 18.31140 09 31 28.75 +17 46 16.2 19.2   644 – Palomar Mountain/NEAT MPS 97099
2004 01 18.33286 09 31 27.50 +17 46 20.6 19.3   644 – Palomar Mountain/NEAT MPS 97099
2004 01 22.29667 09 27 32.62 +18 00 10.1 19.7   704 – Lincoln Laboratory ETS, New Mexico MPS 97099
2004 01 22.30956 09 27 31.80 +18 00 12.5 20.0   704 – Lincoln Laboratory ETS, New Mexico MPS 97099
2004 01 22.32257 09 27 31.03 +18 00 14.9 19.8   704 – Lincoln Laboratory ETS, New Mexico MPS 97099
2004 01 22.33533 09 27 30.15 +18 00 17.6 19.7   704 – Lincoln Laboratory ETS, New Mexico MPS 97099
2004 01 22.34835 09 27 29.27 +18 00 20.7 20.1   704 – Lincoln Laboratory ETS, New Mexico MPS 97099
2004 01 26.27499 09 23 16.59 +18 14 31.2 19.3 R 699 – Lowell Observatory-LONEOS MPS 97886
2004 01 26.30586 09 23 14.54 +18 14 36.3   699 – Lowell Observatory-LONEOS MPS 97886
2004 01 26.32591 09 23 12.99 +18 14 42.3   699 – Lowell Observatory-LONEOS MPS 97886
2004 01 26.34590 09 23 11.67 +18 14 46.2   699 – Lowell Observatory-LONEOS MPS 97886
2004 02 10.33087 09 05 49.35 +19 04 58.9 18.9   644 – Palomar Mountain/NEAT MPS 98835
2004 02 10.35417 09 05 47.69 +19 05 03.0 19.3   644 – Palomar Mountain/NEAT MPS 98835
2004 02 10.37661 09 05 46.07 +19 05 06.5 19.2   644 – Palomar Mountain/NEAT MPS 98835
2004 02 10.38988 09 05 45.16 +19 05 08.2 20.2 V 703 – Catalina Sky Survey MPS 98835
2004 02 10.40625 09 05 44.01 +19 05 11.0 19.8 V 703 – Catalina Sky Survey MPS 98835
2004 02 10.42265 09 05 42.76 +19 05 14.5 19.9 V 703 – Catalina Sky Survey MPS 98835
2004 02 10.43905 09 05 41.66 +19 05 16.0 19.8 V 703 – Catalina Sky Survey MPS 98835
2004 02 11.28040 09 04 44.42 +19 07 37.1 19.8 V 691 – Steward Observatory, Kitt Peak-Spacewatch MPS 98835
2004 02 11.30756 09 04 42.47 +19 07 41.6 19.9 V 691 – Steward Observatory, Kitt Peak-Spacewatch MPS 98835
2004 02 11.33606 09 04 40.45 +19 07 46.2 20.0 V 691 – Steward Observatory, Kitt Peak-Spacewatch MPS 98835
2004 02 16.27098 08 59 14.89 +19 19 55.3 19.5   704 – Lincoln Laboratory ETS, New Mexico MPS 98835
2004 02 16.28266 08 59 14.10 +19 19 56.3 19.6   704 – Lincoln Laboratory ETS, New Mexico MPS 98835
2004 02 16.29439 08 59 13.19 +19 19 57.9 20.3   704 – Lincoln Laboratory ETS, New Mexico MPS 98835
2004 02 16.30607 08 59 12.52 +19 19 56.9 20.1   704 – Lincoln Laboratory ETS, New Mexico MPS 98835
2004 02 16.31776 08 59 11.72 +19 19 59.0 20.2   704 – Lincoln Laboratory ETS, New Mexico MPS 98835
2004 02 23.22072 08 52 26.49 +19 31 57.2 20.0   704 – Lincoln Laboratory ETS, New Mexico MPS 100115
2004 02 23.23223 08 52 25.85 +19 31 58.1 20.7   704 – Lincoln Laboratory ETS, New Mexico MPS 100115
2004 02 23.24361 08 52 25.26 +19 31 58.1 20.5   704 – Lincoln Laboratory ETS, New Mexico MPS 100115
2004 02 23.25501 08 52 24.56 +19 31 59.2 20.2   704 – Lincoln Laboratory ETS, New Mexico MPS 100115
2004 02 23.26640 08 52 23.97 +19 32 00.3 20.1   704 – Lincoln Laboratory ETS, New Mexico MPS 100115
2006 11 02.36905 07 25 11.06 +26 34 18.9 21.2 V G96 – Mt. Lemmon Survey MPS 304846
2006 11 02.37473 07 25 11.31 +26 34 19.3 21.4 V G96 – Mt. Lemmon Survey MPS 304846
2006 11 02.38086 07 25 11.53 +26 34 19.0 20.9 V G96 – Mt. Lemmon Survey MPS 304846
2006 11 02.38683 07 25 11.85 +26 34 19.8 20.8 V G96 – Mt. Lemmon Survey MPS 304846
2009 11 16.25966 04 30 57.24 +28 19 07.5 19.3   704 – Lincoln Laboratory ETS, New Mexico MPS 311167
2009 11 16.27194 04 30 56.40 +28 19 07.1 19.7   704 – Lincoln Laboratory ETS, New Mexico MPS 311167
2009 11 16.28421 04 30 55.65 +28 19 05.9 19.9   704 – Lincoln Laboratory ETS, New Mexico MPS 311167
2009 11 16.29651 04 30 54.76 +28 19 05.2 19.9   704 – Lincoln Laboratory ETS, New Mexico MPS 311167
2009 11 16.30880 04 30 53.95 +28 19 05.3 20.1   704 – Lincoln Laboratory ETS, New Mexico MPS 311167
2009 11 19.21395 04 27 39.39 +28 15 51.8 19.3 V 691 – Steward Observatory, Kitt Peak-Spacewatch MPS 304846
2009 11 19.23166 04 27 38.10 +28 15 50.4 20.0 V 691 – Steward Observatory, Kitt Peak-Spacewatch MPS 304846
2009 11 19.24938 04 27 36.85 +28 15 49.2 19.3 V 691 – Steward Observatory, Kitt Peak-Spacewatch MPS 304846
2009 11 22.25644 04 24 06.05 +28 10 59.7 19.2   704 – Lincoln Laboratory ETS, New Mexico MPS 311167
2009 11 22.28126 04 24 04.11 +28 10 56.8 19.6   704 – Lincoln Laboratory ETS, New Mexico MPS 311167
2009 11 22.29370 04 24 03.26 +28 10 55.5 19.7   704 – Lincoln Laboratory ETS, New Mexico MPS 311167
2009 11 22.30613 04 24 02.24 +28 10 53.3 20.2   704 – Lincoln Laboratory ETS, New Mexico MPS 311167
2009 11 23.25077 04 22 54.82 +28 09 03.4 19.5 V 691 – Steward Observatory, Kitt Peak-Spacewatch MPS 304846
2009 11 23.25837 04 22 54.25 +28 09 02.7 20.2 V 691 – Steward Observatory, Kitt Peak-Spacewatch MPS 304846
2009 11 23.26855 04 22 53.50 +28 09 01.3 19.5 V 691 – Steward Observatory, Kitt Peak-Spacewatch MPS 304846
2009 11 23.27616 04 22 52.94 +28 09 00.4 19.4 V 691 – Steward Observatory, Kitt Peak-Spacewatch MPS 304846
2009 11 23.28634 04 22 52.18 +28 09 00.0 19.2 V 691 – Steward Observatory, Kitt Peak-Spacewatch MPS 304846
2009 11 23.29394 04 22 51.59 +28 08 58.5 19.3 V 691 – Steward Observatory, Kitt Peak-Spacewatch MPS 304846
2009 11 24.92576 04 20 53.97 +28 05 25.7 18.9 V J75 – OAM Observatory, La Sagra MPS 304846
2009 11 24.93874 04 20 52.97 +28 05 23.8 19.6 V J75 – OAM Observatory, La Sagra MPS 304846
2009 11 24.95176 04 20 51.96 +28 05 22.0 18.8 V J75 – OAM Observatory, La Sagra MPS 304846
2009 11 27.22251 04 18 06.89 +27 59 47.1 20.1 V 691 – Steward Observatory, Kitt Peak-Spacewatch MPS 304846
2009 11 27.23008 04 18 06.33 +27 59 46.3 19.6 V 691 – Steward Observatory, Kitt Peak-Spacewatch MPS 304846
2009 11 27.24022 04 18 05.57 +27 59 44.6 19.2 V 691 – Steward Observatory, Kitt Peak-Spacewatch MPS 304846
2009 11 27.24779 04 18 05.00 +27 59 43.4 19.1 V 691 – Steward Observatory, Kitt Peak-Spacewatch MPS 304846
2009 11 27.25792 04 18 04.21 +27 59 41.9 19.1 V 691 – Steward Observatory, Kitt Peak-Spacewatch MPS 304846
2009 11 27.26549 04 18 03.63 +27 59 40.6 19.1 V 691 – Steward Observatory, Kitt Peak-Spacewatch MPS 304846
2009 12 09.80745 04 03 31.61 +27 16 54.8 19.0 V J75 – OAM Observatory, La Sagra MPS 306614
2009 12 09.82012 04 03 30.88 +27 16 53.2 19.7 V J75 – OAM Observatory, La Sagra MPS 306614
2009 12 09.83280 04 03 30.03 +27 16 49.7 19.3 V J75 – OAM Observatory, La Sagra MPS 306614
2009 12 10.19999 04 03 06.70 +27 15 22.7 18.9   704 – Lincoln Laboratory ETS, New Mexico MPS 306614
2009 12 10.21293 04 03 05.80 +27 15 19.9 19.1   704 – Lincoln Laboratory ETS, New Mexico MPS 306614
2009 12 10.22576 04 03 04.99 +27 15 17.3 19.3   704 – Lincoln Laboratory ETS, New Mexico MPS 306614
2009 12 10.23849 04 03 04.15 +27 15 15.3 19.4   704 – Lincoln Laboratory ETS, New Mexico MPS 306614
2009 12 10.25119 04 03 03.33 +27 15 11.5 19.2   704 – Lincoln Laboratory ETS, New Mexico MPS 306614
2009 12 13.60951 03 59 42.21 +27 01 26.1 19.6 C D39 – Shandong University Observatory, Weihai MPS 307263
2009 12 13.62049 03 59 41.54 +27 01 23.2 19.5 C D39 – Shandong University Observatory, Weihai MPS 307263
2009 12 13.63144 03 59 40.88 +27 01 20.4 19.4 C D39 – Shandong University Observatory, Weihai MPS 307263
2009 12 15.19635 03 58 14.31 +26 54 49.5 19.3   704 – Lincoln Laboratory ETS, New Mexico MPS 311825
2009 12 15.20920 03 58 13.58 +26 54 47.6 19.2   704 – Lincoln Laboratory ETS, New Mexico MPS 311825
2009 12 15.22194 03 58 12.86 +26 54 45.3 19.6   704 – Lincoln Laboratory ETS, New Mexico MPS 311825
2009 12 15.23464 03 58 12.20 +26 54 40.2 20.0   704 – Lincoln Laboratory ETS, New Mexico MPS 311825
2009 12 15.24738 03 58 11.47 +26 54 36.8 20.2   704 – Lincoln Laboratory ETS, New Mexico MPS 311825
